Wind_Speed
22 20 20 20 20 20 19 18 17 17 17 16 17 17 17 17 17 16 16 16 17 16 16 17 18 19 19 19 20 20 20 21 21 21 21 21 21 21 22 22 23 23 23 23
22 21 21 21 20 21 20 19 19 18 18 18 18 19 19 18 18 18 17 18 18 18 18 18 19 20 20 21 22 22 23 24 24 24 23 24 23 24 24 24 24 25 25 25
23 22 22 23 22 21 20 20 19 19 19 19 19 19 19 20 19 19 19 19 18 18 19 19 21 21 22 23 24 25 25 25 25 25 25 25 26 26 25 26 26 25 26 26
24 23 23 22 22 22 21 20 19 20 19 18 18 19 20 20 21 21 21 21 20 20 21 22 23 23 23 23 24 25 26 26 25 26 26 26 27 27 27 27 27 27 27 26
24 24 24 24 22 21 21 20 21 21 21 20 19 19 19 20 21 21 21 22 22 23 23 23 24 25 25 25 25 25 26 26 26 26 26 27 28 28 29 28 28 28 27 26
26 24 24 24 23 22 21 21 20 20 20 19 19 19 19 20 21 22 23 23 23 23 24 25 25 26 27 27 27 27 26 25 26 26 27 27 27 28 29 28 28 28 28 27
26 25 26 25 23 22 22 21 20 19 19 18 18 19 20 20 21 22 22 23 23 24 24 25 26 26 27 28 28 27 27 27 27 27 27 27 27 28 28 28 27 27 27 27
26 26 27 26 24 23 22 22 21 20 19 19 19 19 20 20 21 21 21 22 23 23 24 25 26 27 27 28 28 28 28 28 28 27 27 27 28 28 28 27 27 27 27 27
27 26 26 25 25 24 23 23 22 21 21 21 21 21 20 21 21 21 21 22 23 24 24 24 25 26 27 27 28 28 28 28 28 27 27 28 28 28 29 29 29 29 28 28
27 27 27 26 25 25 25 24 24 23 22 22 22 22 22 22 22 22 22 22 22 24 24 25 25 25 26 27 27 28 28 29 29 29 29 29 29 29 29 29 29 30 30 29
26 27 27 27 27 26 26 26 25 25 24 24 24 23 23 23 23 23 23 23 24 25 25 25 25 26 26 27 27 28 28 28 28 27 28 29 30 30 30 30 29 29 28 29
27 27 27 27 27 26 26 26 26 25 25 25 25 25 25 25 25 25 25 25 25 26 26 27 27 27 27 27 27 28 28 28 28 28 27 28 29 29 29 29 28 29 29 28
27 27 27 26 26 26 26 26 25 25 25 25 26 26 26 26 26 26 26 26 26 26 27 27 28 28 28 28 29 29 28 28 28 28 27 27 27 27 28 28 28 28 28 28
26 26 27 27 27 27 26 26 26 26 26 26 26 26 26 26 27 26 26 26 27 27 27 28 29 29 29 29 30 30 29 29 28 29 29 28 28 28 28 29 29 29 29 29
26 26 27 27 27 27 27 26 26 26 26 26 26 27 27 26 26 26 26 27 27 27 27 28 28 28 29 29 29 29 29 28 28 29 29 29 28 28 28 29 30 30 29 29
26 26 26 26 27 27 26 26 26 26 26 27 27 27 27 27 26 26 26 26 27 27 27 27 27 28 29 29 29 28 28 28 29 29 29 29 29 29 29 29 29 29 30 30
24 25 25 26 26 25 25 25 25 26 25 26 26 25 25 25 26 26 26 26 27 27 27 27 27 27 28 28 28 27 28 28 29 29 28 28 29 29 29 29 29 29 29 28
25 26 26 25 24 25 25 25 24 25 25 25 25 25 25 25 26 26 26 26 26 26 27 27 27 28 27 27 27 28 28 28 28 28 28 27 28 28 28 29 29 28 28 27
24 25 26 25 24 24 24 24 23 23 24 25 25 25 26 26 26 26 26 27 27 27 27 28 28 28 28 28 28 28 27 27 26 26 27 26 26 26 26 26 27 27 27 27
23 24 24 25 24 24 24 23 24 24 24 24 25 25 25 26 27 27 27 27 27 28 28 28 28 28 27 27 27 27 27 26 26 26 26 26 27 27 27 26 26 27 27 28
22 23 24 24 24 23 24 23 22 23 23 24 25 26 25 25 26 27 27 27 27 27 27 27 28 27 26 26 26 26 26 26 26 26 26 26 27 27 27 27 27 28 28 28
21 21 21 21 22 23 23 23 22 22 22 22 22 23 23 23 24 25 26 26 26 25 25 25 25 25 25 26 26 26 26 26 26 26 26 26 26 26 27 28 28 29 29 30
21 21 21 20 20 21 22 22 21 21 21 21 21 21 22 23 23 24 24 24 23 23 24 24 24 24 25 25 25 25 26 26 25 25 26 26 26 27 27 28 28 29 29 30
21 20 20 21 20 20 20 20 21 21 20 20 21 22 22 23 23 23 23 23 22 23 23 23 23 24 24 23 23 24 24 24 25 25 25 26 27 27 28 28 28 29 29 30
21 20 20 20 20 20 20 20 20 20 20 21 21 21 22 22 22 21 21 21 21 22 22 22 23 23 23 22 23 23 24 24 24 25 26 27 27 28 28 28 28 29 29 29
20 20 20 21 20 20 19 20 20 20 20 21 21 21 21 21 21 21 21 21 20 20 21 21 21 21 21 22 22 23 23 24 24 25 25 26 27 28 28 28 28 28 29 29
18 19 19 19 18 18 18 18 19 18 19 19 19 20 20 20 19 19 20 20 19 19 19 20 20 20 21 21 22 22 22 23 23 24 25 25 26 26 27 27 27 27 28 29
Wind_Direction
235 237 240 244 246 248 247 247 250 254 255 256 255 257 257 258 258 262 266 268 270 271 273 274 277 278 279 281 283 284 284 286 288 288 287 285 284 283 283 284 285 286 287 288
239 239 242 244 243 244 247 248 249 250 252 254 257 255 256 257 258 261 265 268 270 271 271 274 276 278 280 281 283 284 286 287 288 287 286 284 284 284 283 283 284 286 287 288
241 244 246 246 243 245 248 250 251 252 254 256 256 254 254 254 255 260 265 267 267 270 271 271 274 277 278 279 281 283 285 286 287 285 284 284 285 286 286 287 284 284 285 286
241 244 246 246 246 247 248 249 251 253 256 256 257 257 255 253 254 258 263 266 269 270 271 272 276 277 278 280 282 283 284 284 284 284 284 285 285 285 285 286 285 285 285 286
241 247 247 247 247 247 248 249 249 252 254 257 257 260 256 255 256 257 260 265 268 269 270 274 277 279 281 281 283 285 285 284 283 284 284 284 285 285 285 285 287 286 286 286
241 241 244 249 250 250 249 249 249 250 253 256 257 258 260 261 260 262 264 266 267 268 271 275 278 280 281 282 283 285 284 285 285 284 284 284 284 285 286 286 288 287 288 287
238 240 244 247 247 249 250 249 251 253 255 256 255 257 260 262 262 263 265 266 267 269 271 274 277 279 281 282 283 284 284 285 286 286 285 284 284 285 287 286 285 286 289 290
236 240 244 246 246 246 249 251 251 251 253 255 255 259 263 264 265 264 265 266 268 270 273 275 277 278 279 280 281 282 283 285 286 286 286 285 286 288 289 289 288 288 289 290
237 240 244 244 245 246 249 250 251 251 253 255 257 259 263 265 267 269 267 267 269 271 273 274 277 278 278 279 280 281 281 283 285 286 287 287 287 288 289 289 289 290 290 290
239 241 244 244 245 247 249 251 253 254 255 257 258 260 264 266 268 269 268 269 271 271 274 276 277 277 279 281 282 283 284 285 285 285 286 286 287 287 287 288 290 289 290 290
238 241 243 244 246 248 250 251 253 253 255 258 261 261 263 265 266 268 269 270 271 272 274 276 277 278 279 279 281 284 285 286 285 285 285 286 286 286 287 288 288 291 291 290
237 240 243 244 246 248 251 253 255 256 256 258 260 262 265 266 267 266 268 270 271 272 273 275 276 278 280 281 282 285 287 288 287 286 285 286 286 286 286 287 288 289 290 290
237 240 242 244 245 248 251 253 256 256 256 258 259 262 266 268 268 267 269 271 272 272 273 274 277 279 280 281 281 283 286 288 288 288 288 290 289 289 288 288 288 289 289 289
237 238 240 243 246 249 252 255 256 256 258 259 260 262 266 267 268 269 270 270 272 274 275 276 278 279 280 281 282 283 284 286 288 289 290 291 290 289 288 287 287 287 288 289
239 241 243 244 246 250 253 255 256 257 258 260 261 263 265 267 269 270 270 272 273 275 276 278 279 280 281 282 283 283 285 285 286 288 289 289 289 289 288 287 285 285 286 288
239 241 244 244 247 250 251 253 256 257 258 260 261 263 265 266 268 270 270 273 274 276 277 278 280 282 284 285 284 283 284 286 288 290 290 289 289 288 289 288 287 287 287 289
239 242 244 247 249 251 251 252 255 256 257 260 262 264 268 269 269 270 272 274 275 276 277 279 280 282 283 285 285 286 286 289 290 290 290 290 289 289 289 289 289 290 291 292
242 242 243 245 248 249 251 252 255 257 258 262 264 267 267 268 268 270 272 274 276 277 279 280 281 282 283 284 286 288 289 289 290 290 290 292 291 291 290 289 290 291 291 292
243 243 244 246 248 249 250 250 252 255 258 261 264 266 266 267 269 270 272 275 277 277 279 280 281 281 282 284 287 288 289 290 290 291 292 291 290 290 289 290 291 292 294 294
244 244 245 246 246 248 249 251 251 253 259 262 264 267 267 267 268 269 272 275 277 277 277 279 281 282 283 284 285 287 288 288 288 289 289 289 289 291 292 292 293 292 293 294
245 245 246 247 248 249 250 253 256 256 261 265 266 267 268 269 269 270 273 275 277 279 279 280 280 281 283 284 285 285 286 287 287 289 290 289 289 290 291 292 292 293 294 295
248 248 246 246 248 248 250 256 260 261 262 263 266 268 270 272 272 272 273 274 276 278 279 279 280 281 282 283 284 285 285 286 286 287 289 290 290 290 290 290 291 292 293 294
250 251 250 250 251 251 252 254 259 262 263 266 269 271 272 274 275 275 275 275 277 278 279 279 280 282 283 284 284 285 287 288 289 290 291 292 292 292 293 293 294 294 295 295
248 248 248 249 250 251 252 254 257 261 265 269 274 276 277 279 279 279 279 279 279 280 280 281 281 282 283 284 285 287 289 290 292 293 293 293 294 295 294 294 295 296 296 296
247 248 248 251 254 254 254 257 260 264 267 272 276 278 278 279 280 280 280 281 281 282 281 281 283 284 285 285 286 288 289 291 292 293 294 295 296 296 296 295 296 297 298 298
249 247 247 250 253 254 256 260 262 265 269 272 275 276 277 278 278 280 281 281 282 283 284 283 283 284 284 286 288 291 292 293 294 295 297 298 298 298 298 298 298 298 298 299
247 246 247 249 251 255 260 264 267 269 271 273 274 277 279 279 280 282 282 282 283 285 285 284 285 286 287 290 292 294 295 296 298 299 300 301 301 301 300 299 298 298 298 300
Height
5862 5864 5865 5866 5868 5869 5871 5873 5875 5876 5876 5876 5876 5876 5877 5877 5878 5878 5879 5878 5878 5878 5878 5878 5878 5877 5876 5875 5873 5872 5870 5869 5867 5866 5864 5862 5860 5859 5857 5856 5854 5852 5851 5849
5856 5858 5860 5861 5862 5864 5865 5867 5868 5869 5870 5871 5871 5871 5872 5873 5874 5874 5874 5874 5874 5874 5874 5874 5873 5872 5871 5870 5869 5867 5865 5864 5862 5860 5858 5856 5854 5853 5851 5850 5848 5846 5844 5842
5851 5853 5854 5855 5858 5859 5860 5862 5863 5864 5866 5865 5866 5866 5867 5868 5869 5869 5870 5869 5869 5869 5869 5868 5868 5867 5866 5865 5863 5861 5860 5858 5855 5854 5852 5850 5848 5846 5845 5843 5841 5839 5837 5835
5845 5847 5848 5852 5852 5853 5855 5856 5857 5858 5859 5859 5860 5861 5861 5862 5863 5864 5864 5864 5864 5864 5864 5863 5862 5861 5860 5859 5857 5855 5853 5851 5849 5847 5845 5843 5841 5840 5838 5836 5834 5832 5830 5828
5838 5841 5842 5844 5846 5848 5849 5850 5852 5853 5853 5854 5855 5855 5856 5857 5857 5858 5858 5859 5858 5858 5858 5857 5856 5855 5854 5852 5851 5849 5847 5845 5843 5841 5839 5837 5834 5833 5831 5829 5827 5825 5823 5821
5831 5835 5837 5839 5841 5842 5844 5844 5846 5847 5848 5849 5850 5851 5851 5851 5851 5851 5852 5852 5852 5851 5851 5850 5850 5848 5847 5846 5844 5842 5840 5838 5836 5834 5832 5830 5828 5826 5823 5821 5819 5818 5816 5814
5824 5827 5830 5832 5834 5836 5839 5840 5840 5841 5842 5843 5844 5845 5845 5845 5845 5845 5845 5845 5845 5845 5844 5843 5843 5842 5840 5839 5837 5835 5833 5832 5830 5827 5825 5823 5821 5819 5816 5814 5812 5810 5809 5806
5818 5821 5825 5825 5827 5830 5832 5833 5834 5836 5837 5838 5838 5838 5839 5839 5839 5839 5839 5839 5838 5838 5837 5836 5835 5834 5833 5831 5830 5828 5826 5825 5823 5820 5818 5816 5814 5812 5810 5807 5805 5803 5801 5799
5811 5815 5816 5818 5820 5822 5824 5826 5828 5829 5831 5832 5832 5833 5833 5833 5833 5833 5832 5832 5832 5831 5830 5829 5828 5827 5825 5824 5822 5821 5819 5817 5815 5813 5811 5809 5807 5805 5803 5801 5798 5796 5793 5791
5803 5806 5808 5811 5813 5815 5817 5819 5821 5823 5824 5825 5826 5826 5826 5826 5827 5826 5826 5825 5825 5824 5823 5822 5821 5819 5818 5816 5815 5813 5811 5809 5807 5806 5803 5801 5799 5797 5795 5793 5791 5788 5786 5783
5795 5798 5801 5804 5806 5808 5810 5812 5814 5815 5817 5818 5819 5819 5820 5820 5820 5820 5819 5819 5818 5817 5816 5815 5813 5812 5810 5809 5807 5805 5803 5801 5799 5797 5796 5793 5791 5789 5787 5785 5783 5781 5778 5776
5788 5791 5794 5796 5799 5801 5803 5805 5807 5808 5810 5811 5812 5812 5813 5813 5812 5812 5812 5812 5811 5810 5809 5808 5806 5805 5803 5802 5800 5798 5796 5794 5791 5789 5787 5785 5783 5781 5779 5777 5775 5772 5770 5768
5781 5784 5787 5789 5792 5794 5796 5798 5799 5801 5802 5803 5804 5805 5805 5805 5805 5805 5804 5804 5803 5802 5801 5800 5799 5797 5796 5794 5792 5790 5788 5786 5784 5781 5779 5777 5774 5772 5770 5768 5766 5764 5762 5759
5773 5776 5779 5782 5785 5787 5788 5790 5792 5793 5794 5795 5796 5797 5797 5797 5797 5797 5797 5796 5795 5794 5793 5792 5791 5789 5788 5786 5784 5782 5780 5778 5776 5773 5771 5769 5767 5764 5762 5760 5758 5756 5754 5751
5766 5769 5772 5774 5776 5779 5780 5782 5783 5784 5786 5787 5788 5788 5789 5789 5789 5789 5789 5788 5787 5786 5785 5784 5783 5781 5779 5777 5775 5773 5771 5769 5767 5765 5763 5761 5758 5756 5754 5752 5749 5747 5745 5743
5759 5762 5764 5766 5768 5770 5772 5774 5775 5776 5778 5779 5780 5780 5781 5781 5781 5781 5780 5780 5779 5778 5777 5776 5774 5773 5771 5769 5766 5764 5762 5761 5758 5756 5754 5752 5750 5747 5745 5743 5741 5739 5737 5735
5752 5754 5756 5759 5761 5762 5764 5766 5767 5768 5770 5771 5771 5772 5772 5772 5772 5772 5772 5772 5771 5770 5769 5768 5766 5764 5762 5760 5758 5756 5754 5752 5750 5748 5746 5743 5741 5739 5737 5735 5733 5730 5728 5726
5745 5747 5749 5751 5753 5755 5757 5759 5760 5761 5762 5763 5763 5764 5765 5765 5765 5764 5764 5763 5762 5761 5760 5759 5757 5755 5754 5752 5750 5748 5746 5744 5742 5739 5737 5735 5732 5730 5728 5726 5724 5721 5719 5717
5738 5740 5742 5744 5746 5747 5749 5751 5752 5754 5755 5755 5756 5756 5756 5756 5756 5756 5755 5755 5754 5753 5752 5750 5749 5747 5745 5743 5741 5739 5737 5735 5733 5731 5729 5726 5724 5722 5720 5717 5715 5713 5710 5708
5731 5733 5735 5737 5739 5740 5742 5743 5745 5746 5747 5748 5748 5748 5748 5748 5748 5748 5747 5746 5745 5744 5743 5741 5740 5738 5736 5734 5733 5731 5729 5727 5725 5723 5721 5719 5716 5714 5711 5709 5707 5704 5702 5700
5725 5727 5728 5730 5732 5734 5735 5736 5737 5739 5740 5740 5740 5740 5740 5739 5739 5739 5738 5737 5736 5735 5733 5732 5731 5729 5728 5726 5724 5722 5720 5719 5717 5715 5713 5710 5708 5706 5703 5701 5699 5696 5694 5692
5718 5720 5722 5723 5725 5726 5728 5729 5730 5731 5731 5732 5732 5732 5731 5731 5730 5730 5729 5728 5727 5726 5725 5724 5722 5721 5719 5718 5716 5714 5713 5711 5709 5707 5705 5702 5700 5698 5695 5693 5690 5688 5685 5683
5712 5714 5715 5717 5718 5719 5721 5722 5724 5724 5725 5725 5725 5724 5724 5723 5722 5722 5721 5720 5719 5718 5717 5716 5715 5713 5712 5710 5708 5706 5705 5703 5701 5698 5696 5694 5692 5689 5687 5684 5681 5679 5676 5674
5706 5707 5709 5710 5711 5713 5714 5715 5717 5717 5718 5718 5718 5717 5717 5716 5715 5714 5713 5712 5711 5710 5710 5708 5707 5705 5704 5702 5700 5699 5697 5695 5692 5690 5688 5686 5683 5680 5678 5675 5673 5670 5667 5664
5700 5701 5703 5704 5705 5706 5708 5709 5709 5710 5711 5711 5711 5710 5710 5709 5708 5707 5706 5705 5704 5703 5702 5701 5700 5698 5696 5694 5693 5691 5689 5687 5684 5682 5679 5677 5674 5671 5669 5666 5664 5661 5658 5655
5694 5695 5697 5698 5699 5701 5702 5702 5703 5703 5704 5704 5704 5703 5702 5702 5701 5700 5699 5698 5697 5696 5695 5693 5692 5690 5689 5687 5685 5683 5681 5679 5676 5674 5671 5668 5666 5663 5660 5657 5655 5652 5650 5647
5687 5689 5691 5692 5694 5695 5696 5697 5697 5697 5697 5697 5697 5696 5696 5695 5694 5693 5692 5691 5690 5689 5688 5686 5685 5684 5682 5680 5678 5676 5674 5672 5669 5666 5664 5661 5658 5655 5652 5649 5646 5644 5641 5638